When you browse on this site, cookies collect data to enhance your experience and personalize the content and advertising you see.
Visit our Privacy Policy to learn more. By continuing to use the site, you agree to this use of cookies and data.
  • In Czech Republic
  • List of Countries
  • For 7 days
  • Water Temperature
  • Satellite Maps
  • Weather Map
  • Weather Widgets
  • user-avatar
    Login

    Hourly Weather Guiyang

    Today, 19 June, Wednesday

    Time Temperature Precipitation Wind Pressure Humidity
    00:00 +22°C° 0 mm 4 mps 658 mmHg 94%
    01:00 +22°C° 0 mm 4 mps 658 mmHg 94%
    02:00 +22°C° 0 mm 4 mps 658 mmHg 94%
    03:00 +22°C° 0 mm 4 mps 657 mmHg 94%
    04:00 +22°C° 0 mm 4 mps 657 mmHg 94%
    05:00 +22°C° 0 mm 4 mps 657 mmHg 92%
    06:00 +22°C° 0 mm 5 mps 658 mmHg 91%
    07:00 +23°C° 0 mm 5 mps 658 mmHg 90%
    08:00 +25°C° 0.1 mm 5 mps 658 mmHg 87%
    09:00 +26°C° 0.1 mm 6 mps 658 mmHg 83%
    10:00 +27°C° 0.1 mm 6 mps 658 mmHg 79%
    11:00 +27°C° 0.1 mm 6 mps 658 mmHg 77%
    12:00 +28°C° 0.1 mm 6 mps 657 mmHg 74%
    13:00 +29°C° 0.1 mm 7 mps 657 mmHg 71%
    14:00 +29°C° 0 mm 7 mps 656 mmHg 72%
    15:00 +29°C° 0 mm 7 mps 656 mmHg 73%
    16:00 +29°C° 0 mm 7 mps 655 mmHg 74%
    17:00 +28°C° 0 mm 6 mps 655 mmHg 79%
    18:00 +27°C° 0 mm 6 mps 655 mmHg 84%
    19:00 +24°C° 0 mm 6 mps 655 mmHg 88%
    20:00 +24°C° 0 mm 6 mps 656 mmHg 90%
    21:00 +24°C° 0 mm 6 mps 656 mmHg 91%
    22:00 +23°C° 0 mm 6 mps 657 mmHg 92%
    23:00 +23°C° 0 mm 6 mps 656 mmHg 92%

    Tomorrow, 20 June, Thursday

    Time Temperature Precipitation Wind Pressure Humidity
    00:00 +23°C° 0 mm 6 mps 656 mmHg 91%
    01:00 +23°C° 0 mm 6 mps 656 mmHg 90%
    02:00 +23°C° 0 mm 6 mps 656 mmHg 90%
    03:00 +23°C° 0 mm 6 mps 655 mmHg 90%
    04:00 +23°C° 0 mm 6 mps 655 mmHg 90%
    05:00 +23°C° 0 mm 6 mps 655 mmHg 90%
    06:00 +23°C° 0 mm 6 mps 656 mmHg 89%
    07:00 +23°C° 0 mm 6 mps 656 mmHg 89%
    08:00 +24°C° 0 mm 7 mps 656 mmHg 85%
    09:00 +26°C° 0 mm 7 mps 656 mmHg 82%
    10:00 +27°C° 0 mm 8 mps 657 mmHg 78%
    11:00 +28°C° 0 mm 7 mps 656 mmHg 78%
    12:00 +28°C° 0 mm 7 mps 656 mmHg 78%
    13:00 +28°C° 0 mm 7 mps 656 mmHg 78%
    14:00 +28°C° 0.1 mm 7 mps 655 mmHg 79%
    15:00 +28°C° 0.1 mm 6 mps 655 mmHg 80%
    16:00 +28°C° 0.1 mm 6 mps 654 mmHg 81%
    17:00 +27°C° 0 mm 6 mps 654 mmHg 84%
    18:00 +27°C° 0 mm 6 mps 654 mmHg 87%
    19:00 +26°C° 0 mm 5 mps 654 mmHg 90%
    20:00 +26°C° 0 mm 5 mps 655 mmHg 91%
    21:00 +25°C° 0 mm 5 mps 655 mmHg 92%
    22:00 +25°C° 0 mm 5 mps 655 mmHg 94%
    23:00 +25°C° 0 mm 5 mps 655 mmHg 93%

    Day after tomorrow, 21 June, Friday

    Time Temperature Precipitation Wind Pressure Humidity
    00:00 +25°C° 0 mm 5 mps 655 mmHg 93%
    01:00 +25°C° 0 mm 5 mps 655 mmHg 93%
    02:00 +25°C° 0.2 mm 4 mps 655 mmHg 93%
    03:00 +25°C° 0.2 mm 4 mps 654 mmHg 93%
    04:00 +25°C° 0.2 mm 4 mps 654 mmHg 93%
    05:00 +25°C° 0.1 mm 4 mps 655 mmHg 92%
    06:00 +25°C° 0.1 mm 4 mps 655 mmHg 91%
    07:00 +25°C° 0.1 mm 4 mps 655 mmHg 90%
    08:00 +26°C° 0.1 mm 5 mps 655 mmHg 87%
    09:00 +27°C° 0.1 mm 5 mps 656 mmHg 83%
    10:00 +28°C° 0.1 mm 5 mps 656 mmHg 80%
    11:00 +28°C° 0.1 mm 5 mps 656 mmHg 79%
    12:00 +29°C° 0.1 mm 6 mps 655 mmHg 78%
    13:00 +29°C° 0.1 mm 6 mps 655 mmHg 76%
    14:00 +29°C° 0.5 mm 6 mps 655 mmHg 77%
    15:00 +29°C° 0.5 mm 5 mps 654 mmHg 78%
    16:00 +29°C° 0.5 mm 5 mps 654 mmHg 79%
    17:00 +28°C° 1.5 mm 5 mps 654 mmHg 83%
    18:00 +27°C° 1.5 mm 5 mps 654 mmHg 88%
    19:00 +26°C° 1.5 mm 4 mps 654 mmHg 92%
    20:00 +26°C° 5.3 mm 4 mps 654 mmHg 92%
    21:00 +26°C° 5.3 mm 3 mps 654 mmHg 93%
    22:00 +25°C° 5.3 mm 3 mps 655 mmHg 93%
    23:00 +25°C° 3 mm 3 mps 654 mmHg 93%

    22 June, Saturday

    Time Temperature Precipitation Wind Pressure Humidity
    00:00 +25°C° 3 mm 2 mps 654 mmHg 93%
    01:00 +25°C° 3 mm 2 mps 654 mmHg 93%
    02:00 +25°C° 2.3 mm 2 mps 654 mmHg 92%
    03:00 +25°C° 2.3 mm 2 mps 654 mmHg 90%
    04:00 +25°C° 2.3 mm 3 mps 653 mmHg 88%
    05:00 +25°C° 1.5 mm 2 mps 654 mmHg 89%
    06:00 +25°C° 1.5 mm 2 mps 654 mmHg 90%
    07:00 +25°C° 1.5 mm 2 mps 654 mmHg 91%
    08:00 +26°C° 1.8 mm 2 mps 655 mmHg 90%
    09:00 +26°C° 1.8 mm 2 mps 655 mmHg 89%
    10:00 +26°C° 1.8 mm 2 mps 655 mmHg 89%
    11:00 +26°C° 3 mm 2 mps 655 mmHg 90%
    12:00 +26°C° 3 mm 2 mps 655 mmHg 90%
    13:00 +25°C° 3 mm 2 mps 655 mmHg 91%
    14:00 +25°C° 3.4 mm 3 mps 655 mmHg 92%
    15:00 +23°C° 3.4 mm 4 mps 655 mmHg 92%
    16:00 +22°C° 3.4 mm 4 mps 654 mmHg 93%
    17:00 +25°C° 4.1 mm 1 mps 654 mmHg 94%
    18:00 +25°C° 4.1 mm 1 mps 654 mmHg 95%
    19:00 +24°C° 4.1 mm 1 mps 655 mmHg 96%
    20:00 +24°C° 5 mm 1 mps 655 mmHg 96%
    21:00 +24°C° 5 mm 2 mps 655 mmHg 97%
    22:00 +23°C° 5 mm 2 mps 656 mmHg 97%
    23:00 +23°C° 9 mm 2 mps 656 mmHg 97%

    23 June, Sunday

    Time Temperature Precipitation Wind Pressure Humidity
    00:00 +23°C° 9 mm 2 mps 655 mmHg 98%
    01:00 +21°C° 9 mm 2 mps 655 mmHg 98%
    02:00 +21°C° 0.8 mm 2 mps 655 mmHg 97%
    03:00 +21°C° 0.8 mm 2 mps 655 mmHg 97%
    04:00 +21°C° 0.8 mm 2 mps 655 mmHg 96%
    05:00 +21°C° 0.5 mm 2 mps 655 mmHg 96%
    06:00 +21°C° 0.5 mm 2 mps 655 mmHg 96%
    07:00 +21°C° 0.5 mm 2 mps 656 mmHg 96%
    08:00 +21°C° 0.3 mm 2 mps 656 mmHg 95%
    09:00 +21°C° 0.3 mm 2 mps 656 mmHg 95%
    10:00 +22°C° 0.3 mm 1 mps 657 mmHg 94%
    11:00 +21°C° 0.1 mm 2 mps 657 mmHg 94%
    12:00 +21°C° 0.1 mm 2 mps 657 mmHg 93%
    13:00 +21°C° 0.1 mm 2 mps 656 mmHg 92%
    14:00 +21°C° 0 mm 2 mps 656 mmHg 93%
    15:00 +20°C° 0 mm 2 mps 656 mmHg 93%
    16:00 +20°C° 0 mm 2 mps 656 mmHg 93%
    17:00 +20°C° 0 mm 2 mps 656 mmHg 94%
    18:00 +21°C° 0 mm 1 mps 656 mmHg 94%
    19:00 +21°C° 0 mm 1 mps 656 mmHg 94%
    20:00 +21°C° 0 mm 1 mps 656 mmHg 94%
    21:00 +21°C° 0 mm 1 mps 657 mmHg 94%
    22:00 +20°C° 0 mm 1 mps 657 mmHg 94%
    23:00 +20°C° 0 mm 1 mps 657 mmHg 95%

    24 June, Monday

    Time Temperature Precipitation Wind Pressure Humidity
    00:00 +20°C° 0 mm 1 mps 657 mmHg 95%
    01:00 +20°C° 0 mm 1 mps 656 mmHg 96%
    02:00 +20°C° 0 mm 1 mps 656 mmHg 95%
    03:00 +20°C° 0 mm 1 mps 656 mmHg 95%
    04:00 +20°C° 0 mm 1 mps 656 mmHg 95%
    05:00 +20°C° 0 mm 1 mps 656 mmHg 94%
    06:00 +21°C° 0 mm 1 mps 657 mmHg 93%
    07:00 +21°C° 0 mm 1 mps 657 mmHg 91%
    08:00 +22°C° 0 mm 1 mps 657 mmHg 88%
    09:00 +23°C° 0 mm 2 mps 658 mmHg 85%
    10:00 +24°C° 0 mm 2 mps 658 mmHg 82%
    11:00 +24°C° 0 mm 2 mps 658 mmHg 82%
    12:00 +24°C° 0 mm 2 mps 657 mmHg 82%
    13:00 +24°C° 0 mm 2 mps 657 mmHg 82%
    14:00 +24°C° 0.1 mm 2 mps 657 mmHg 82%
    15:00 +24°C° 0.1 mm 2 mps 657 mmHg 83%
    16:00 +25°C° 0.1 mm 2 mps 656 mmHg 83%
    17:00 +24°C° 0 mm 2 mps 657 mmHg 86%
    18:00 +23°C° 0 mm 1 mps 657 mmHg 88%
    19:00 +23°C° 0 mm 1 mps 657 mmHg 91%
    20:00 +23°C° 0.1 mm 1 mps 657 mmHg 92%
    21:00 +22°C° 0.1 mm 1 mps 658 mmHg 93%
    22:00 +22°C° 0.1 mm 1 mps 658 mmHg 94%
    23:00 +22°C° 0.2 mm 1 mps 658 mmHg 94%
    Show more